FW3072 Weather Reports


Display with metric or nautical units.
time (UTC)temp
F
wind
direction
speed
MPH
gust
MPH
rain 1hr
in
rain 24hr
in
rain mn
in
humidity
%
barometer
mb
20260904161204 75 359 0.0 5.0 0.00 0.45 0.00 76 1014.9
20260904160225 74 359 0.0 4.0 0.00 0.45 0.00 77 1015.0
20260904155203 73 359 1.0 8.0 0.00 0.45 0.00 76 1014.9
20260904154204 73 359 3.0 6.0 0.00 0.45 0.00 78 1014.6
20260904153203 72 359 1.0 5.0 0.00 0.45 0.00 82 1014.5
20260904152204 70 359 0.0 6.0 0.00 0.45 0.00 86 1014.5
20260904151203 69 359 3.0 6.0 0.00 0.45 0.00 90 1014.4
20260904150204 69 359 0.0 6.0 0.00 0.45 0.00 92 1014.6
20260904145203 68 329 0.0 4.0 0.00 0.45 0.00 93 1014.7
20260904144203 68 359 0.0 3.0 0.00 0.45 0.00 93 1014.7
20260904143203 67 359 0.0 3.0 0.00 0.45 0.00 94 1014.4
20260904142203 67 359 2.0 4.0 0.00 0.45 0.00 94 1014.2
20260904141205 67 359 1.0 6.0 0.00 0.45 0.00 95 1014.2
20260904140205 67 360 0.0 0.0 0.00 0.45 0.00 95 1014.3
20260904135203 66 360 0.0 0.0 0.00 0.45 0.00 95 1014.5
20260904134204 66 360 0.0 2.0 0.00 0.45 0.00 95 1014.6
20260904133203 67 359 1.0 2.0 0.00 0.45 0.00 95 1014.6
20260904132227 66 360 0.0 2.0 0.00 0.45 0.00 95 1014.7
20260904131204 66 359 0.0 2.0 0.00 0.45 0.00 96 1014.8
20260904130224 66 359 0.0 2.0 0.00 0.45 0.00 96 1014.8
20260904125204 66 359 1.0 2.0 0.00 0.45 0.00 95 1014.7
20260904124204 66 360 0.0 1.0 0.00 0.45 0.00 96 1014.7
20260904123204 66 359 1.0 2.0 0.00 0.45 0.00 96 1014.8
20260904122226 66 359 0.0 1.0 0.00 0.45 0.00 96 1014.7
20260904121203 66 360 0.0 0.0 0.00 0.45 0.00 96 1014.5
20260904120203 65 360 0.0 0.0 0.00 0.45 0.00 96 1014.5
20260904115204 65 360 0.0 0.0 0.00 0.45 0.00 95 1014.5
20260904114203 65 360 0.0 0.0 0.00 0.45 0.00 95 1014.4
20260904113206 64 360 0.0 0.0 0.00 0.45 0.00 95 1014.3
20260904112204 64 360 0.0 0.0 0.00 0.45 0.00 95 1014.0
20260904111203 64 360 0.0 0.0 0.00 0.45 0.00 95 1014.0
20260904110205 64 360 0.0 0.0 0.00 0.45 0.00 95 1013.9
20260904105204 64 360 0.0 0.0 0.00 0.45 0.00 95 1014.0
20260904104203 65 360 0.0 0.0 0.00 0.45 0.00 95 1013.9
20260904103207 65 360 0.0 0.0 0.00 0.45 0.00 95 1013.9
20260904102204 65 360 0.0 0.0 0.00 0.45 0.00 95 1013.8
20260904101203 65 360 0.0 0.0 0.00 0.45 0.00 95 1014.0
20260904100205 65 360 0.0 0.0 0.00 0.45 0.00 95 1013.8
20260904095206 65 360 0.0 0.0 0.00 0.45 0.00 95 1013.6
20260904094206 65 360 0.0 0.0 0.00 0.45 0.00 95 1013.6
20260904093203 65 360 0.0 0.0 0.00 0.45 0.00 95 1013.5
20260904092204 65 360 0.0 0.0 0.00 0.45 0.00 95 1013.6
20260904091203 65 360 0.0 0.0 0.00 0.45 0.00 95 1013.6
20260904090204 66 360 0.0 0.0 0.00 0.45 0.00 95 1013.5
20260904085203 66 360 0.0 0.0 0.00 0.45 0.00 95 1013.4
20260904084226 66 360 0.0 0.0 0.00 0.45 0.00 95 1013.5
20260904083224 66 360 0.0 0.0 0.00 0.45 0.00 95 1013.5
20260904082204 66 360 0.0 2.0 0.00 0.45 0.00 95 1013.5
20260904081247 66 359 0.0 2.0 0.00 0.45 0.00 95 1013.4
20260904080203 66 360 0.0 0.0 0.00 0.45 0.00 95 1013.3
20260904075204 66 360 0.0 0.0 0.00 0.45 0.00 95 1013.2
20260904074203 66 360 0.0 0.0 0.00 0.45 0.00 95 1013.1
20260904073204 66 360 0.0 0.0 0.00 0.45 0.00 95 1012.9
20260904072203 66 360 0.0 0.0 0.00 0.45 0.00 95 1013.0
20260904071204 66 360 0.0 0.0 0.00 0.45 0.00 95 1012.9
20260904070203 66 360 0.0 0.0 0.00 0.45 0.00 95 1013.0
20260904065204 66 360 0.0 0.0 0.00 0.45 0.00 95 1012.9
20260904064204 66 360 0.0 0.0 0.00 0.45 0.00 95 1013.0
20260904063204 67 360 0.0 0.0 0.00 0.45 0.00 95 1012.9
20260904062205 67 360 0.0 0.0 0.00 0.45 0.00 95 1012.9
20260904061204 67 360 0.0 0.0 0.00 0.45 0.00 95 1012.8
20260904060206 68 360 0.0 0.0 0.00 0.45 0.00 95 1012.8
20260904055204 68 360 0.0 0.0 0.00 0.45 0.00 95 1012.8
20260904054203 69 360 0.0 0.0 0.00 0.45 0.00 95 1013.1
20260904053204 69 360 0.0 0.0 0.00 0.45 0.00 95 1013.1
20260904052226 69 360 0.0 0.0 0.00 0.45 0.00 95 1013.1
20260904051205 69 360 0.0 0.0 0.00 0.45 0.00 95 1013.3
20260904050205 70 360 0.0 0.0 0.00 0.45 0.00 95 1013.4
20260904045205 70 360 0.0 0.0 0.00 0.45 0.00 95 1013.3
20260904044225 70 360 0.0 0.0 0.00 0.45 0.00 95 1013.2
20260904043203 70 360 0.0 0.0 0.00 0.45 0.00 95 1013.3
20260904042225 70 360 0.0 0.0 0.00 0.45 0.00 95 1013.3
20260904041225 69 360 0.0 0.0 0.00 0.45 0.00 95 1013.4
20260904040204 69 360 0.0 0.0 0.00 0.45 0.00 95 1013.3
20260904035203 69 360 0.0 0.0 0.00 0.45 0.45 95 1013.2
20260904034204 69 360 0.0 0.0 0.00 0.45 0.45 95 1013.1
20260904033203 69 360 0.0 0.0 0.00 0.45 0.45 94 1013.1
20260904032205 70 360 0.0 0.0 0.00 0.45 0.45 95 1013.0
20260904031203 70 360 0.0 0.0 0.00 0.45 0.45 95 1012.8
20260904025204 70 360 0.0 0.0 0.00 0.45 0.45 94 1012.8
20260904024204 70 360 0.0 0.0 0.00 0.45 0.45 94 1012.6
20260904023204 70 360 0.0 0.0 0.00 0.45 0.45 94 1012.6
20260904022203 70 359 0.0 1.0 0.00 0.45 0.45 94 1012.6
20260904021226 70 360 0.0 0.0 0.00 0.45 0.45 94 1012.8
20260904020227 71 360 0.0 0.0 0.00 0.45 0.45 94 1012.9
20260904015205 71 359 0.0 2.0 0.00 0.45 0.45 94 1012.8
20260904014205 71 360 0.0 2.0 0.00 0.45 0.45 94 1012.7
20260904013204 72 359 3.0 5.0 0.00 0.45 0.45 94 1012.6
20260904012228 72 359 2.0 4.0 0.00 0.53 0.45 94 1012.5
20260904011204 73 359 0.0 4.0 0.00 0.54 0.45 94 1012.2
20260904010204 72 359 1.0 2.0 0.00 0.54 0.45 94 1011.9
20260904005203 73 359 1.0 3.0 0.03 0.55 0.45 94 1011.7
20260904004204 73 360 0.0 0.0 0.03 0.55 0.45 93 1011.8
20260904003224 73 360 0.0 2.0 0.03 0.55 0.45 93 1011.7
20260904002204 73 359 0.0 2.0 0.03 0.55 0.45 93 1011.3
20260904001205 73 359 0.0 2.0 0.01 0.55 0.43 92 1011.6
20260904000226 74 360 0.0 5.0 0.00 0.55 0.42 92 1011.7
20260903235204 75 359 0.0 12.0 0.40 0.55 0.40 92 1011.8
20260903234204 75 359 0.0 2.0 0.11 0.29 0.11 91 1011.5
20260903233225 75 274 0.0 3.0 0.00 0.21 0.00 91 1011.5
20260903232204 76 359 0.0 3.0 0.00 0.22 0.00 90 1011.7
20260903231204 76 359 0.0 6.0 0.00 0.44 0.00 90 1011.6
20260903230203 77 359 5.0 8.0 0.00 0.33 0.00 89 1012.0
20260903225204 77 360 0.0 0.0 0.00 0.44 0.00 88 1011.5
20260903224204 77 360 0.0 0.0 0.00 0.44 0.00 88 1011.7
20260903223204 77 360 0.0 0.0 0.00 0.44 0.00 87 1011.6
20260903222203 77 360 0.0 0.0 0.00 0.44 0.00 87 1011.6
20260903221226 78 360 0.0 0.0 0.00 0.44 0.00 87 1011.6
20260903220205 78 360 0.0 0.0 0.00 0.44 0.00 86 1011.2
20260903215226 78 360 0.0 0.0 0.00 0.44 0.00 86 1011.3
20260903214203 78 360 0.0 0.0 0.00 0.44 0.00 86 1011.0
20260903213204 78 360 0.0 0.0 0.00 0.44 0.00 86 1010.8
20260903212205 78 360 0.0 0.0 0.00 0.44 0.00 86 1011.0
20260903211225 78 360 0.0 0.0 0.00 0.44 0.00 85 1011.1
20260903210204 79 360 0.0 1.0 0.00 0.44 0.00 85 1011.4
20260903205204 79 359 0.0 6.0 0.00 0.44 0.00 85 1011.3
20260903204204 79 359 1.0 5.0 0.00 0.44 0.00 85 1011.3
20260903203204 79 359 1.0 5.0 0.00 0.44 0.00 84 1011.5
20260903202225 79 359 1.0 6.0 0.00 0.44 0.00 84 1011.8
20260903201203 79 359 1.0 4.0 0.00 0.44 0.00 83 1011.8
20260903200204 80 359 0.0 6.0 0.00 0.44 0.00 82 1011.8
20260903195203 81 357 2.0 5.0 0.00 0.44 0.00 81 1011.9
20260903194204 81 359 1.0 5.0 0.00 0.44 0.00 81 1011.8
20260903193203 82 359 0.0 8.0 0.00 0.44 0.00 80 1011.7
20260903192204 82 359 2.0 8.0 0.00 0.44 0.00 80 1011.8
20260903191204 82 359 4.0 9.0 0.00 0.44 0.00 80 1012.0
20260903190204 82 359 3.0 9.0 0.00 0.44 0.00 81 1012.1
20260903185226 82 359 3.0 11.0 0.00 0.44 0.00 80 1012.1
20260903184204 82 359 6.0 13.0 0.00 0.44 0.00 80 1012.0
20260903183203 81 359 2.0 9.0 0.00 0.44 0.00 82 1012.2
20260903182226 81 359 2.0 11.0 0.00 0.44 0.00 83 1012.2
20260903181204 80 358 1.0 5.0 0.00 0.44 0.00 84 1012.2
20260903180204 80 359 2.0 10.0 0.00 0.44 0.00 85 1012.3
20260903175205 80 359 1.0 10.0 0.00 0.44 0.00 86 1012.5
20260903174204 79 359 0.0 4.0 0.00 0.44 0.00 87 1012.5
20260903173205 78 352 2.0 4.0 0.00 0.44 0.00 87 1012.6
20260903172226 78 354 1.0 9.0 0.00 0.44 0.00 87 1012.6
20260903171203 78 360 0.0 5.0 0.00 0.44 0.00 87 1012.6
20260903170204 78 359 2.0 9.0 0.00 0.44 0.00 87 1012.7
20260903165224 79 358 4.0 11.0 0.00 0.44 0.00 88 1012.7
20260903164225 78 359 1.0 6.0 0.00 0.44 0.00 88 1012.6
20260903163203 78 359 0.0 6.0 0.00 0.44 0.00 88 1012.6
20260903162204 78 359 1.0 5.0 0.00 0.44 0.00 87 1012.8